Wind_Speed
16 15 14 14 13 13 13 13 14 15 17 18 19 20 22 23 24 26 27 28 29 30 30 31 32 33 34 34 35 35 36 37 37 37 38 38 38 38 37 37 37 37 37
17 16 16 15 14 14 14 15 16 17 18 19 20 22 23 24 25 27 28 29 30 31 31 32 33 34 35 35 36 37 37 38 38 38 39 39 39 39 38 38 38 38 39
19 18 17 16 15 16 16 16 18 19 20 21 22 23 24 25 27 28 29 30 31 32 33 34 34 35 36 36 37 38 38 39 39 39 40 40 40 40 40 40 40 40 40
20 19 18 17 17 17 17 18 19 20 21 22 23 24 25 26 28 29 30 31 32 33 34 35 35 36 36 37 38 39 40 40 40 41 41 41 41 41 41 41 41 42 42
22 21 20 19 19 19 19 20 20 22 23 24 24 25 26 28 29 30 31 32 33 34 35 36 37 37 37 38 39 40 41 41 42 42 42 43 43 43 43 43 43 44 44
23 22 21 21 20 21 21 21 22 23 24 25 26 27 28 29 30 32 33 33 35 36 36 37 38 38 39 39 40 41 42 42 43 43 44 44 44 44 44 45 46 46 47
24 24 23 23 22 23 23 23 24 25 26 26 27 28 29 30 32 33 34 35 36 37 38 38 39 39 40 41 42 43 43 44 45 45 45 45 45 45 46 47 48 48 49
26 26 25 25 25 25 25 25 26 26 27 28 28 29 30 32 33 34 36 36 37 38 39 39 40 41 41 42 43 44 45 46 46 47 46 46 47 47 48 49 50 51 52
28 28 27 27 27 27 27 27 27 28 28 29 30 31 32 33 34 36 37 38 38 39 40 40 41 42 43 44 45 45 46 47 48 48 48 48 49 50 51 51 53 54 55
30 30 29 29 29 29 29 29 29 29 30 31 31 32 33 34 35 37 38 39 39 40 40 41 42 43 44 45 46 47 47 48 49 49 49 50 51 52 53 54 55 57 57
32 31 31 31 30 30 30 30 31 31 32 32 33 34 35 36 37 38 38 39 40 41 41 42 43 44 45 46 47 48 49 49 50 51 52 52 53 54 56 57 58 59 59
33 33 32 32 32 32 32 32 32 33 33 34 35 35 36 37 38 39 39 40 41 42 42 43 44 45 46 47 48 50 50 51 52 53 54 55 56 57 58 60 60 60 60
34 34 34 34 34 34 34 34 34 35 35 36 36 37 38 39 39 40 41 41 42 42 43 44 45 46 47 49 50 51 52 53 54 54 55 56 58 59 60 60 60 60 59
36 35 36 35 36 36 36 36 36 36 36 37 38 38 39 40 40 41 41 42 43 43 44 45 46 47 48 50 51 52 53 54 55 56 57 58 59 60 60 59 59 59 58
37 37 37 37 37 37 37 38 37 37 38 38 39 40 41 41 41 42 42 43 44 44 44 45 46 48 50 51 52 54 54 55 56 57 57 58 59 59 59 59 58 58 57
38 38 38 38 38 39 39 39 39 39 39 39 40 41 41 42 42 42 43 43 44 45 45 45 47 49 51 52 53 55 56 56 57 57 57 58 59 58 58 58 58 57 56
39 39 39 39 39 39 39 39 39 39 39 40 41 41 41 42 42 42 43 43 44 45 46 46 48 50 51 53 54 55 56 56 56 57 57 58 58 58 57 57 57 56 55
40 40 39 39 39 39 39 39 39 39 39 40 41 41 42 42 42 42 42 43 44 45 46 47 48 50 52 54 54 55 55 56 56 56 57 57 58 58 57 57 56 56 55
41 41 41 40 40 40 40 39 39 39 40 40 41 41 42 42 42 42 42 43 44 45 46 47 48 51 52 53 54 54 55 55 56 56 57 58 58 57 57 57 56 56 55
43 42 41 40 40 41 41 40 40 40 40 41 41 41 42 42 42 42 43 44 45 45 46 48 49 51 52 52 53 54 54 55 56 57 58 58 58 58 57 57 57 56 55
44 43 42 42 41 41 41 41 41 41 41 41 41 41 41 42 42 42 43 44 45 45 47 48 49 50 51 52 53 53 54 55 56 57 58 58 59 58 57 57 56 56 55
44 44 43 42 42 42 41 42 42 41 41 42 41 41 42 42 42 42 44 44 45 45 47 48 49 50 51 52 52 54 55 55 55 56 57 58 59 58 57 56 56 56 55
45 44 44 44 43 43 42 42 42 42 42 42 42 42 42 41 41 42 43 44 44 46 47 48 49 50 50 51 53 54 54 55 55 56 57 58 58 57 57 57 57 56 54
46 45 45 45 44 44 43 43 42 42 42 42 41 42 41 41 41 41 42 43 44 46 47 48 49 50 50 51 53 53 53 54 55 57 58 57 57 57 58 58 58 56 54
46 46 45 45 44 44 43 43 43 43 42 41 41 40 40 40 40 41 42 43 44 45 46 47 49 49 50 52 52 53 53 54 56 57 57 57 56 57 57 58 57 56 53
47 47 46 45 44 44 43 43 43 42 41 40 40 39 39 40 41 42 42 43 43 44 45 47 48 49 50 52 52 52 53 55 56 56 56 56 57 57 56 56 55 53 51
Wind_Direction
247 253 257 261 267 274 281 290 296 301 306 310 313 315 316 318 320 321 322 322 322 323 323 323 323 323 323 323 322 322 321 321 320 319 317 316 315 313 312 311 310 309 307
248 251 255 260 266 274 281 288 293 298 303 307 311 313 314 316 318 320 320 321 322 322 322 322 322 322 322 321 321 320 320 319 318 317 316 315 314 313 311 310 309 308 307
248 251 255 259 266 273 280 286 291 296 301 305 308 310 312 314 316 318 319 319 320 321 321 321 320 320 320 320 319 319 319 318 317 317 316 315 314 313 311 310 309 308 306
248 252 255 259 266 272 279 285 291 295 300 303 305 308 310 312 314 315 316 317 318 319 319 319 319 318 318 318 318 318 318 317 317 316 315 314 313 313 311 310 309 308 306
249 252 256 260 266 272 278 284 290 294 299 302 304 305 308 310 311 313 314 316 317 318 318 318 317 317 316 317 317 317 317 316 316 315 314 313 313 312 311 310 309 307 306
249 253 256 261 266 272 278 284 289 293 297 300 302 304 306 307 309 310 312 314 316 316 316 316 316 315 315 315 316 316 316 315 315 315 314 313 312 311 310 310 309 307 306
250 253 257 262 267 272 278 283 287 291 295 299 300 302 304 306 308 309 310 312 314 315 315 314 314 313 313 314 315 315 315 315 314 314 313 313 312 311 310 309 308 308 306
250 253 257 262 267 272 277 281 285 289 293 297 299 301 303 305 307 308 309 310 312 313 313 313 313 312 313 313 314 314 314 314 314 314 313 313 312 311 310 310 309 308 306
251 254 258 263 267 271 276 280 283 287 292 296 298 300 302 304 306 307 308 309 310 311 312 312 312 312 313 313 314 314 314 314 314 314 313 312 312 311 310 310 309 308 307
250 254 258 263 267 271 275 279 282 287 291 294 297 299 301 303 304 305 307 308 309 310 311 311 311 312 313 313 313 314 314 314 314 314 313 313 312 311 310 310 309 308 307
250 254 259 263 266 270 274 277 281 286 289 293 296 298 300 301 303 305 305 307 308 309 310 310 311 312 313 313 313 314 314 314 314 314 313 312 312 311 310 310 309 308 307
251 255 259 262 265 269 273 276 280 284 288 292 295 297 299 300 302 303 304 305 307 308 309 310 311 312 312 313 313 314 314 314 314 314 313 313 312 311 311 311 310 310 309
251 255 258 261 264 267 272 275 279 283 287 290 294 296 298 299 301 302 303 304 306 307 308 309 310 311 312 313 313 313 314 314 314 314 313 313 313 312 312 312 312 311 310
251 255 258 260 263 267 271 275 279 282 286 289 292 295 297 298 300 301 302 304 305 307 308 309 310 310 311 312 313 313 313 314 314 314 314 314 314 314 314 313 313 312 312
252 255 258 260 263 266 270 274 278 281 285 289 291 294 296 297 299 300 301 303 305 307 308 309 309 310 312 313 313 314 314 314 314 315 315 315 315 315 315 315 315 314 313
252 255 258 260 262 265 269 273 277 281 285 288 291 293 294 296 298 299 301 303 305 307 308 309 309 311 312 313 313 314 314 314 315 316 316 317 317 317 317 317 317 316 315
252 255 258 260 262 265 269 273 277 280 284 287 290 292 294 295 298 299 301 303 305 307 308 309 310 311 312 313 313 314 315 315 316 317 317 318 318 318 318 319 318 317 316
252 255 258 260 262 265 269 273 276 279 283 287 289 291 293 295 297 298 301 302 304 307 308 309 310 312 313 313 313 315 316 317 318 318 319 319 319 319 320 320 319 318 317
253 256 258 260 263 265 269 272 275 279 283 286 288 291 292 294 296 298 300 302 304 306 308 309 311 312 313 313 314 315 317 318 319 319 319 320 320 320 321 320 320 319 318
253 256 258 260 263 266 269 272 276 279 282 285 287 290 291 294 296 298 300 302 304 306 308 310 311 312 313 314 314 316 317 319 319 319 320 321 321 321 321 321 320 320 319
253 255 258 260 262 265 269 272 276 279 281 284 286 288 290 292 295 298 300 303 305 307 308 310 312 313 314 314 315 316 317 319 319 320 321 322 322 322 321 321 321 320 319
252 255 258 261 263 266 268 272 275 277 280 283 285 286 289 292 295 298 301 303 305 307 309 310 312 313 314 314 315 316 318 319 319 320 321 322 322 322 322 322 321 321 320
251 254 257 260 263 266 268 272 274 277 279 282 284 285 288 292 295 298 301 303 305 307 308 310 312 313 314 315 316 317 318 319 321 321 322 323 323 323 323 322 322 321 321
251 254 257 260 262 265 268 271 273 277 279 281 283 286 289 293 295 297 300 302 304 307 309 311 312 313 314 316 317 318 319 320 321 322 323 324 324 324 323 323 322 322 321
252 254 257 260 262 265 268 270 273 276 279 281 284 287 290 292 295 297 300 302 304 307 309 311 313 314 315 316 317 318 319 320 321 322 323 324 325 324 324 323 323 322 321
252 255 257 259 261 264 267 270 273 276 278 280 283 287 289 292 295 298 300 302 305 307 309 311 313 314 316 317 317 318 319 321 322 323 324 325 325 325 325 324 323 322 322
Height
5835 5836 5837 5838 5838 5838 5838 5838 5837 5836 5835 5834 5832 5830 5828 5826 5824 5821 5819 5816 5813 5809 5806 5803 5799 5795 5792 5788 5783 5779 5775 5771 5767 5762 5758 5754 5750 5746 5742 5738 5734 5731 5727
5831 5832 5833 5834 5834 5834 5834 5834 5833 5833 5831 5830 5828 5826 5824 5822 5820 5817 5814 5811 5808 5805 5802 5798 5794 5790 5786 5782 5778 5774 5769 5765 5760 5756 5752 5747 5743 5739 5735 5731 5727 5723 5720
5827 5828 5829 5830 5830 5830 5830 5830 5829 5828 5827 5826 5824 5822 5820 5818 5815 5812 5810 5807 5803 5800 5797 5793 5789 5785 5781 5776 5772 5768 5763 5758 5754 5750 5745 5741 5736 5732 5728 5723 5719 5715 5711
5822 5824 5825 5825 5826 5826 5826 5825 5825 5824 5823 5821 5819 5817 5815 5813 5810 5808 5805 5802 5798 5795 5791 5787 5783 5779 5775 5770 5766 5761 5757 5752 5747 5742 5738 5733 5729 5724 5720 5715 5711 5707 5702
5818 5819 5820 5821 5821 5821 5821 5821 5820 5819 5818 5816 5815 5813 5810 5808 5805 5802 5799 5796 5793 5789 5785 5781 5777 5773 5768 5764 5759 5754 5750 5745 5740 5735 5730 5725 5721 5716 5711 5706 5702 5697 5693
5812 5814 5815 5816 5816 5816 5816 5816 5815 5814 5813 5811 5809 5807 5805 5803 5800 5797 5794 5791 5787 5783 5779 5775 5771 5766 5762 5757 5752 5747 5742 5737 5732 5727 5722 5717 5712 5707 5702 5697 5692 5687 5683
5807 5809 5810 5811 5811 5811 5811 5811 5810 5809 5808 5806 5804 5802 5799 5797 5794 5791 5788 5784 5781 5777 5773 5769 5764 5760 5755 5750 5745 5740 5735 5729 5724 5719 5714 5709 5703 5698 5693 5687 5682 5677 5672
5801 5803 5804 5805 5805 5805 5805 5805 5804 5803 5802 5800 5798 5796 5794 5792 5788 5785 5781 5778 5774 5770 5766 5762 5757 5753 5748 5743 5738 5733 5727 5722 5716 5711 5705 5699 5694 5688 5682 5677 5671 5665 5660
5795 5796 5798 5799 5799 5799 5799 5799 5798 5797 5796 5794 5792 5791 5788 5785 5782 5779 5775 5771 5767 5763 5759 5755 5750 5745 5740 5735 5730 5725 5719 5713 5708 5702 5696 5690 5684 5678 5671 5665 5659 5653 5646
5788 5790 5791 5792 5793 5793 5793 5792 5791 5790 5789 5787 5786 5784 5782 5779 5776 5772 5768 5764 5760 5756 5752 5747 5742 5737 5732 5727 5722 5716 5710 5704 5698 5692 5686 5680 5673 5667 5660 5653 5646 5639 5632
5781 5783 5784 5785 5786 5786 5786 5785 5785 5784 5782 5781 5779 5777 5774 5771 5768 5765 5762 5757 5753 5749 5744 5739 5734 5729 5724 5719 5713 5707 5701 5695 5689 5682 5676 5669 5662 5655 5648 5640 5632 5625 5617
5774 5775 5777 5778 5778 5779 5779 5778 5778 5777 5775 5774 5772 5769 5767 5764 5761 5758 5754 5750 5746 5741 5736 5731 5726 5721 5716 5710 5704 5698 5692 5685 5679 5672 5665 5658 5650 5643 5635 5626 5618 5609 5601
5766 5768 5769 5770 5771 5771 5771 5771 5770 5769 5768 5767 5764 5762 5759 5756 5753 5750 5746 5742 5738 5734 5729 5723 5718 5712 5707 5701 5695 5689 5682 5675 5668 5661 5654 5646 5638 5630 5621 5612 5603 5595 5586
5758 5759 5761 5762 5763 5763 5763 5763 5763 5762 5761 5759 5757 5754 5751 5748 5745 5742 5738 5734 5730 5726 5721 5715 5709 5703 5698 5692 5686 5679 5672 5665 5657 5650 5642 5634 5625 5616 5607 5598 5589 5580 5571
5749 5750 5752 5753 5754 5755 5755 5755 5755 5754 5753 5751 5749 5746 5743 5740 5737 5733 5729 5725 5722 5717 5713 5707 5701 5695 5689 5682 5676 5669 5661 5654 5646 5638 5630 5621 5612 5603 5594 5584 5575 5566 5558
5740 5742 5743 5744 5745 5746 5746 5747 5747 5746 5745 5743 5740 5738 5735 5732 5729 5725 5721 5717 5712 5708 5704 5698 5692 5686 5679 5672 5665 5658 5650 5642 5634 5626 5617 5609 5599 5590 5581 5571 5562 5553 5544
5731 5733 5734 5736 5737 5737 5738 5738 5738 5737 5736 5734 5732 5729 5727 5723 5720 5716 5712 5708 5704 5699 5694 5689 5682 5676 5669 5662 5655 5647 5639 5631 5623 5614 5606 5597 5587 5578 5569 5559 5550 5541 5532
5722 5724 5725 5727 5728 5729 5729 5730 5729 5728 5727 5726 5723 5721 5718 5715 5711 5707 5703 5699 5695 5690 5685 5680 5673 5667 5660 5652 5645 5637 5628 5620 5612 5603 5594 5585 5576 5566 5557 5547 5538 5529 5520
5713 5715 5716 5718 5719 5720 5720 5720 5720 5720 5718 5717 5715 5712 5709 5706 5703 5699 5695 5691 5686 5681 5676 5670 5664 5657 5650 5643 5635 5626 5617 5609 5600 5591 5583 5574 5564 5555 5545 5536 5526 5517 5508
5703 5705 5707 5709 5710 5711 5711 5711 5711 5710 5709 5708 5706 5703 5700 5697 5694 5690 5686 5682 5677 5672 5667 5661 5655 5648 5640 5632 5625 5617 5609 5599 5590 5580 5571 5562 5553 5543 5534 5525 5516 5506 5497
5694 5696 5698 5699 5700 5701 5702 5702 5702 5701 5700 5698 5696 5694 5691 5688 5684 5681 5677 5673 5668 5663 5657 5651 5645 5638 5631 5623 5615 5607 5599 5591 5581 5571 5561 5552 5543 5533 5523 5513 5504 5495 5486
5684 5686 5688 5690 5691 5692 5692 5692 5692 5691 5690 5689 5687 5684 5682 5678 5675 5672 5668 5663 5658 5653 5648 5642 5635 5628 5621 5613 5605 5597 5589 5582 5574 5564 5553 5542 5532 5522 5512 5503 5493 5484 5474
5674 5676 5678 5680 5681 5682 5682 5682 5682 5681 5680 5679 5677 5675 5672 5669 5666 5662 5658 5654 5649 5643 5638 5632 5626 5619 5612 5605 5597 5589 5579 5569 5562 5553 5543 5532 5521 5510 5501 5492 5482 5473 5464
5663 5666 5668 5670 5671 5672 5672 5672 5672 5671 5670 5669 5667 5665 5663 5660 5656 5653 5649 5644 5639 5634 5629 5623 5617 5610 5602 5594 5586 5578 5569 5560 5551 5541 5532 5523 5512 5501 5490 5480 5470 5461 5453
5652 5655 5657 5659 5661 5662 5662 5662 5662 5661 5661 5659 5658 5655 5653 5650 5647 5643 5639 5635 5630 5624 5618 5613 5606 5600 5592 5584 5577 5568 5560 5551 5543 5532 5522 5513 5503 5493 5481 5470 5459 5450 5441
5642 5644 5647 5649 5650 5651 5652 5652 5652 5651 5651 5650 5648 5646 5643 5641 5637 5634 5630 5626 5621 5615 5610 5603 5597 5590 5583 5575 5567 5559 5550 5542 5532 5524 5513 5503 5493 5483 5475 5463 5451 5441 5432